User: anonymous   Login
Location: Morgan Hill
(37.1133°N, 121.7027°W)
Time: 16:07:01
(UTC-07:00)
Language:

CZ-2F R/B - Orbit

View from above orbital plane
View from above orbital plane
View from above satellite
View from above satellite

Ground track
Ground track

The orbit data is extracted from the following two-line orbital elements,

1 41766U 16057B   16272.99286525  .04586470  89486-5  41121-3 0  9993
2 41766  42.7782 110.0777 0031874 240.4999 119.4671 16.36011499  2167
Epoch (UTC): 28 September 2016 23:49:43
Eccentricity: 0.0031874
inclination: 42.7782°
perigee height: 155 km
apogee height: 197 km
right ascension of ascending node: 110.0777°
argument of perigee: 240.4999°
revolutions per day: 16.36011499
mean anomaly at epoch: 119.4671°
orbit number at epoch: 216

The dashed part of the orbit path shows where the satellite is in the earth's shadow,  

DLR